Simultaneous Nadir Overpasses (SNOs) Predictions

Prediction of SNOs between GOES-14 and AQUA Satellite Orbit:

Table of predicted SNOs for the next 14.0 days since TLE Epoch: 11/9/2024
Index Date Time (GOES-14) GOES-14 Lat,Lon AQUA Lat,Lon Distance(km) Time Diff (sec)
1 11/10/2024 09:28:43 -0.02,-108.62 -0.33,-107.08 174.65 80
2 11/10/2024 21:51:10 0.01,-108.54 -0.70,-111.87 377.86 80
3 11/12/2024 21:30:06 0.02,-108.54 0.25,-107.36 134.36 80
4 11/13/2024 09:52:24 0.00,-108.62 0.74,-112.11 397.33 80
5 11/15/2024 09:31:16 -0.00,-108.61 -0.20,-107.59 115.85 80
6 11/15/2024 21:53:42 -0.02,-108.53 -0.84,-112.37 436.19 80
7 11/17/2024 21:32:32 -0.01,-108.53 0.16,-107.85 78.08 80
8 11/18/2024 09:54:49 0.03,-108.60 0.86,-112.59 453.02 80
9 11/20/2024 09:33:35 0.02,-108.59 -0.08,-108.04 62.38 80
10 11/20/2024 21:55:59 -0.04,-108.51 -0.98,-112.81 489.01 80
11 11/22/2024 21:34:43 -0.03,-108.51 0.03,-108.26 28.25 80
